Location: Newark
(12.5331°N, 56.4669°W)
Time: 20:03:51
(UTC+00:00)

Envisat - Pass Details

Date: 29 January 2020
Orbit: 764 x 766 km, 98.1° (Epoch: 23 February)

Event Time Altitude Azimuth Distance (km) Brightness Sun altitude
Rises 08:54:32 0° 50° (NE) 3,217 6.7 -18.9°
Maximum altitude 08:59:59 10° 99° (E) 2,294 6.8 -17.6°
Drops below altitude 10° 08:59:59 10° 99° (E) 2,294 6.8 -17.6°
Sets 09:05:25 0° 147° (SSE) 3,216 7.0 -16.4°
